General Rodolfo Sanchez Taboada International Airport
MMML : now visible

Airfield :











YOU CAN JOIN US ON...

 
LOGIN :

Register | Disclaimer

   EN    FR    IT 

 









Legend :    VFR   Marginal VFR   IFR   Intensive IFR   Very Intensive IFR
Visi :
Ceiling :
>= 8 km
>= 3000ft
5 to 8 km
1000 to 3000 ft
1500m to 5 km
500 to 1000 ft
800 to 1500m
200 to 500 ft
< 800m
< 200 ft
Symbols :   Thunderstorms  Fog  Heavy snow  Heavy precipitations  Wind > 20 kt






- Airport Elevation : 74 ft
- IATA code : MXL


MMML - General Rodolfo Sanchez Taboada International

CURRENT METAR :
  • 172340Z 10003KT 8SM SKC 46/05 A2955 RMK SLP007 57023 991 HZY ISOL AC

EXPIRED METARs :
  • 172241Z 17002KT 8SM SKC 47/06 A2957 RMK HZY ISOL AC
  • 172140Z 23004KT 10SM FEW140 46/07 A2959 RMK 8/030 HZY

TAF TAF MMML
Valid from the 17 at 18:00 until the 18 at 18:00 UTC


171646Z 1718/1818 16012KT P6SM SCT200
FM180300 14005KT P6SM SKC
FM181700 15015KT P6SM SKC
MMFR FIR / North America



MET'MAP, your aeronautical weather chart ! - Copyright ORBIFLY December 2007 - Disclaimer

ORBIFLY MET'MAP TEAM :

Programming & Development : Alexandra Zaïnal
Concept & original design : Baudouin d'Aumeries
Assistance for programming : Marc-Olivier Méhu
Technical & hardware support : Manuel Goepfert

Contact : metmap@orbifly.com




SOURCES & CREDITS :

   NOAA       Earth
Advisory